QPF
0.00 0.00 0.00 0.00 0.00 0.00 0.00 0.00 0.00 0.00 0.00 0.00 0.00 0.00 0.00 0.00 0.00 0.00 0.00 0.00 0.00 0.00 0.00 0.00 0.00 0.00 0.00 0.00 0.00 0.01 0.01 0.02 0.03 0.03 0.03 0.03 0.04 0.04 0.03 0.02 0.02 0.03 0.03 0.04
0.00 0.00 0.00 0.00 0.00 0.00 0.00 0.00 0.00 0.00 0.00 0.00 0.00 0.00 0.00 0.00 0.00 0.00 0.00 0.00 0.00 0.00 0.00 0.00 0.00 0.00 0.00 0.00 0.00 0.01 0.01 0.01 0.01 0.02 0.02 0.02 0.03 0.03 0.03 0.02 0.03 0.03 0.04 0.04
0.00 0.00 0.00 0.00 0.00 0.00 0.00 0.00 0.00 0.00 0.00 0.00 0.00 0.00 0.00 0.00 0.00 0.00 0.00 0.00 0.00 0.00 0.00 0.00 0.00 0.00 0.00 0.00 0.01 0.01 0.01 0.01 0.01 0.02 0.02 0.02 0.02 0.02 0.02 0.02 0.03 0.02 0.02 0.02
0.00 0.00 0.00 0.00 0.00 0.00 0.00 0.00 0.00 0.00 0.00 0.00 0.00 0.00 0.00 0.00 0.00 0.00 0.00 0.00 0.00 0.00 0.00 0.00 0.00 0.00 0.00 0.00 0.01 0.00 0.00 0.01 0.01 0.01 0.02 0.02 0.02 0.02 0.04 0.03 0.03 0.02 0.02 0.03
0.00 0.00 0.00 0.00 0.00 0.00 0.00 0.00 0.00 0.00 0.00 0.00 0.00 0.00 0.00 0.00 0.00 0.00 0.00 0.00 0.00 0.00 0.00 0.00 0.00 0.00 0.00 0.00 0.00 0.00 0.00 0.01 0.01 0.01 0.02 0.02 0.02 0.02 0.03 0.03 0.03 0.02 0.02 0.02
0.00 0.00 0.00 0.00 0.00 0.00 0.00 0.00 0.01 0.00 0.00 0.00 0.00 0.00 0.00 0.00 0.00 0.00 0.00 0.00 0.00 0.00 0.00 0.00 0.00 0.00 0.00 0.00 0.00 0.00 0.01 0.01 0.00 0.01 0.01 0.01 0.01 0.02 0.02 0.03 0.03 0.02 0.02 0.03
0.00 0.00 0.00 0.00 0.00 0.00 0.00 0.01 0.01 0.01 0.00 0.00 0.00 0.00 0.00 0.00 0.00 0.00 0.00 0.00 0.00 0.00 0.00 0.00 0.00 0.00 0.00 0.00 0.00 0.00 0.01 0.02 0.02 0.01 0.01 0.01 0.02 0.02 0.02 0.03 0.03 0.03 0.03 0.03
0.00 0.00 0.00 0.00 0.00 0.00 0.00 0.00 0.01 0.01 0.00 0.00 0.00 0.00 0.00 0.00 0.00 0.00 0.00 0.00 0.00 0.00 0.00 0.00 0.00 0.00 0.01 0.01 0.02 0.03 0.03 0.04 0.03 0.02 0.02 0.02 0.03 0.04 0.03 0.04 0.04 0.05 0.04 0.04
0.00 0.00 0.00 0.00 0.00 0.00 0.00 0.00 0.00 0.00 0.00 0.00 0.00 0.00 0.00 0.00 0.00 0.00 0.00 0.00 0.00 0.00 0.00 0.00 0.01 0.01 0.02 0.03 0.04 0.05 0.04 0.04 0.04 0.03 0.02 0.03 0.05 0.08 0.06 0.04 0.05 0.04 0.04 0.04
0.00 0.00 0.00 0.00 0.00 0.00 0.00 0.00 0.00 0.00 0.00 0.00 0.00 0.00 0.00 0.00 0.00 0.00 0.00 0.00 0.00 0.00 0.00 0.01 0.01 0.02 0.02 0.02 0.02 0.03 0.03 0.04 0.04 0.05 0.04 0.04 0.04 0.05 0.05 0.05 0.05 0.04 0.04 0.04
0.00 0.00 0.00 0.00 0.00 0.00 0.00 0.00 0.00 0.00 0.00 0.00 0.00 0.00 0.00 0.00 0.00 0.00 0.00 0.00 0.00 0.00 0.00 0.00 0.01 0.01 0.01 0.01 0.01 0.01 0.02 0.04 0.05 0.05 0.05 0.06 0.06 0.05 0.05 0.05 0.05 0.04 0.04 0.03
0.00 0.00 0.00 0.00 0.00 0.00 0.00 0.00 0.00 0.00 0.00 0.00 0.00 0.00 0.00 0.00 0.00 0.00 0.00 0.00 0.00 0.00 0.00 0.00 0.00 0.00 0.00 0.00 0.00 0.02 0.07 0.12 0.15 0.12 0.08 0.06 0.05 0.04 0.03 0.04 0.04 0.04 0.03 0.03
0.00 0.00 0.00 0.00 0.00 0.00 0.00 0.00 0.00 0.00 0.00 0.00 0.00 0.00 0.00 0.00 0.00 0.00 0.00 0.00 0.00 0.00 0.00 0.00 0.00 0.01 0.00 0.00 0.01 0.05 0.11 0.14 0.11 0.08 0.06 0.07 0.06 0.04 0.03 0.03 0.03 0.03 0.04 0.04
0.00 0.00 0.00 0.00 0.00 0.00 0.00 0.00 0.00 0.00 0.00 0.00 0.00 0.00 0.00 0.00 0.00 0.00 0.00 0.00 0.00 0.00 0.00 0.00 0.00 0.01 0.00 0.01 0.02 0.03 0.05 0.04 0.03 0.03 0.03 0.04 0.04 0.04 0.04 0.04 0.04 0.04 0.05 0.05
0.00 0.00 0.00 0.00 0.00 0.00 0.00 0.00 0.00 0.00 0.00 0.00 0.00 0.00 0.00 0.00 0.00 0.00 0.00 0.00 0.00 0.00 0.00 0.00 0.00 0.01 0.01 0.02 0.02 0.03 0.05 0.04 0.03 0.02 0.03 0.04 0.04 0.04 0.03 0.03 0.03 0.02 0.02 0.02
0.00 0.00 0.00 0.00 0.00 0.00 0.00 0.00 0.00 0.00 0.00 0.00 0.00 0.00 0.00 0.00 0.00 0.00 0.00 0.00 0.00 0.00 0.00 0.00 0.00 0.01 0.01 0.02 0.03 0.04 0.04 0.04 0.03 0.02 0.03 0.02 0.02 0.02 0.03 0.03 0.03 0.02 0.02 0.02
0.00 0.00 0.00 0.00 0.00 0.00 0.00 0.00 0.00 0.00 0.00 0.00 0.00 0.00 0.00 0.00 0.00 0.00 0.00 0.00 0.00 0.00 0.00 0.00 0.00 0.00 0.01 0.01 0.02 0.02 0.03 0.04 0.05 0.06 0.06 0.04 0.02 0.03 0.03 0.02 0.02 0.02 0.02 0.03
0.00 0.00 0.00 0.00 0.00 0.00 0.00 0.00 0.00 0.00 0.00 0.00 0.00 0.00 0.00 0.00 0.00 0.00 0.00 0.00 0.00 0.00 0.00 0.00 0.00 0.00 0.00 0.00 0.01 0.01 0.01 0.02 0.02 0.03 0.05 0.07 0.05 0.05 0.04 0.04 0.03 0.03 0.03 0.02
0.00 0.00 0.00 0.00 0.00 0.00 0.00 0.00 0.00 0.00 0.00 0.01 0.00 0.00 0.00 0.00 0.00 0.00 0.00 0.01 0.01 0.01 0.00 0.00 0.00 0.00 0.00 0.00 0.01 0.01 0.01 0.01 0.01 0.02 0.03 0.04 0.05 0.06 0.05 0.04 0.05 0.04 0.03 0.02
0.00 0.00 0.00 0.00 0.00 0.00 0.00 0.00 0.00 0.00 0.01 0.01 0.01 0.01 0.01 0.00 0.01 0.01 0.01 0.01 0.01 0.01 0.00 0.00 0.00 0.01 0.01 0.01 0.01 0.01 0.02 0.02 0.01 0.02 0.02 0.03 0.04 0.05 0.04 0.05 0.05 0.05 0.03 0.02
0.00 0.00 0.00 0.00 0.00 0.00 0.00 0.00 0.00 0.01 0.01 0.01 0.01 0.01 0.01 0.01 0.01 0.01 0.00 0.00 0.00 0.00 0.00 0.00 0.01 0.01 0.03 0.03 0.03 0.03 0.03 0.03 0.02 0.02 0.03 0.03 0.03 0.05 0.06 0.06 0.05 0.04 0.03 0.03
0.00 0.00 0.01 0.01 0.01 0.01 0.00 0.00 0.01 0.00 0.00 0.00 0.01 0.01 0.02 0.01 0.01 0.01 0.00 0.01 0.01 0.00 0.00 0.00 0.01 0.01 0.03 0.05 0.05 0.05 0.06 0.07 0.06 0.04 0.04 0.04 0.04 0.04 0.05 0.05 0.05 0.04 0.04 0.03
0.00 0.01 0.01 0.01 0.01 0.00 0.00 0.00 0.00 0.00 0.00 0.00 0.01 0.01 0.02 0.02 0.01 0.01 0.01 0.01 0.01 0.01 0.01 0.01 0.01 0.01 0.01 0.03 0.06 0.06 0.06 0.05 0.06 0.05 0.05 0.05 0.05 0.04 0.04 0.05 0.04 0.05 0.05 0.04
0.00 0.00 0.01 0.01 0.00 0.00 0.01 0.01 0.01 0.01 0.01 0.00 0.01 0.01 0.02 0.04 0.02 0.01 0.01 0.02 0.03 0.02 0.02 0.02 0.01 0.01 0.02 0.04 0.07 0.07 0.07 0.04 0.05 0.06 0.07 0.05 0.04 0.04 0.04 0.03 0.03 0.03 0.04 0.04
0.01 0.01 0.01 0.01 0.01 0.02 0.03 0.03 0.03 0.02 0.01 0.01 0.01 0.01 0.03 0.05 0.04 0.03 0.03 0.03 0.03 0.03 0.03 0.02 0.02 0.03 0.06 0.06 0.07 0.06 0.07 0.05 0.05 0.06 0.06 0.07 0.05 0.04 0.04 0.04 0.05 0.05 0.04 0.05
0.01 0.01 0.02 0.02 0.02 0.04 0.04 0.03 0.02 0.03 0.03 0.03 0.03 0.03 0.03 0.03 0.04 0.04 0.04 0.03 0.03 0.03 0.04 0.04 0.04 0.05 0.06 0.06 0.06 0.05 0.06 0.06 0.05 0.06 0.07 0.06 0.06 0.05 0.04 0.04 0.05 0.05 0.05 0.05
MSLP
1005.15 1005.64 1006.01 1006.24 1006.34 1006.34 1006.27 1006.16 1006.02 1005.87 1005.72 1005.56 1005.41 1005.28 1005.18 1005.16 1005.23 1005.39 1005.65 1005.98 1006.37 1006.78 1007.17 1007.54 1007.89 1008.20 1008.52 1008.84 1009.18 1009.55 1009.94 1010.34 1010.72 1011.09 1011.42 1011.72 1012.01 1012.31 1012.63 1012.97 1013.34 1013.72 1014.08 1014.41
1005.99 1006.34 1006.57 1006.67 1006.66 1006.57 1006.44 1006.28 1006.10 1005.91 1005.70 1005.46 1005.21 1004.96 1004.74 1004.60 1004.56 1004.64 1004.86 1005.19 1005.60 1006.07 1006.54 1007.00 1007.41 1007.79 1008.15 1008.50 1008.86 1009.24 1009.64 1010.04 1010.43 1010.79 1011.12 1011.42 1011.69 1011.96 1012.24 1012.55 1012.88 1013.24 1013.60 1013.96
1006.70 1006.90 1006.98 1006.96 1006.86 1006.71 1006.54 1006.36 1006.17 1005.95 1005.68 1005.36 1004.99 1004.60 1004.23 1003.92 1003.74 1003.71 1003.85 1004.15 1004.57 1005.08 1005.63 1006.17 1006.67 1007.14 1007.57 1007.98 1008.39 1008.81 1009.24 1009.68 1010.09 1010.48 1010.82 1011.11 1011.36 1011.59 1011.83 1012.08 1012.37 1012.71 1013.07 1013.44
1007.19 1007.25 1007.21 1007.10 1006.94 1006.78 1006.61 1006.45 1006.27 1006.04 1005.73 1005.32 1004.82 1004.26 1003.70 1003.20 1002.84 1002.65 1002.67 1002.89 1003.29 1003.81 1004.40 1005.02 1005.61 1006.17 1006.70 1007.20 1007.70 1008.19 1008.70 1009.20 1009.67 1010.11 1010.47 1010.78 1011.02 1011.21 1011.40 1011.60 1011.85 1012.15 1012.50 1012.89
1007.48 1007.42 1007.30 1007.14 1006.97 1006.83 1006.72 1006.61 1006.46 1006.23 1005.89 1005.39 1004.76 1004.02 1003.25 1002.52 1001.93 1001.55 1001.40 1001.50 1001.82 1002.32 1002.93 1003.60 1004.27 1004.92 1005.55 1006.16 1006.76 1007.36 1007.97 1008.56 1009.13 1009.63 1010.06 1010.39 1010.64 1010.82 1010.97 1011.13 1011.33 1011.59 1011.93 1012.33
1007.62 1007.49 1007.32 1007.16 1007.02 1006.94 1006.90 1006.86 1006.77 1006.57 1006.19 1005.62 1004.85 1003.93 1002.95 1001.99 1001.16 1000.54 1000.19 1000.13 1000.33 1000.76 1001.34 1002.01 1002.73 1003.46 1004.17 1004.89 1005.60 1006.32 1007.04 1007.76 1008.43 1009.03 1009.54 1009.93 1010.22 1010.41 1010.54 1010.67 1010.83 1011.06 1011.38 1011.77
1007.72 1007.55 1007.38 1007.24 1007.16 1007.15 1007.20 1007.24 1007.20 1007.02 1006.63 1005.99 1005.11 1004.03 1002.85 1001.67 1000.60 999.75 999.19 998.93 998.98 999.29 999.80 1000.44 1001.17 1001.92 1002.70 1003.49 1004.30 1005.13 1005.97 1006.80 1007.59 1008.30 1008.91 1009.39 1009.73 1009.96 1010.11 1010.23 1010.37 1010.57 1010.86 1011.24
1007.89 1007.71 1007.55 1007.44 1007.41 1007.47 1007.57 1007.67 1007.68 1007.52 1007.12 1006.43 1005.47 1004.28 1002.95 1001.59 1000.33 999.28 998.51 998.06 997.94 998.10 998.50 999.06 999.74 1000.48 1001.28 1002.11 1002.97 1003.88 1004.80 1005.73 1006.63 1007.46 1008.17 1008.75 1009.17 1009.47 1009.66 1009.80 1009.94 1010.13 1010.40 1010.75
1008.18 1008.00 1007.85 1007.76 1007.75 1007.83 1007.96 1008.08 1008.11 1007.95 1007.54 1006.84 1005.84 1004.59 1003.17 1001.71 1000.33 999.13 998.20 997.59 997.29 997.30 997.56 998.01 998.60 999.28 1000.04 1000.86 1001.73 1002.67 1003.64 1004.64 1005.61 1006.53 1007.34 1008.02 1008.55 1008.93 1009.19 1009.38 1009.55 1009.74 1009.99 1010.31
1008.58 1008.40 1008.24 1008.13 1008.10 1008.15 1008.25 1008.34 1008.33 1008.16 1007.75 1007.05 1006.06 1004.83 1003.42 1001.94 1000.52 999.25 998.23 997.49 997.06 996.92 997.03 997.35 997.82 998.40 999.07 999.83 1000.67 1001.58 1002.56 1003.57 1004.59 1005.56 1006.46 1007.23 1007.85 1008.34 1008.69 1008.96 1009.17 1009.38 1009.63 1009.93
1009.01 1008.82 1008.62 1008.45 1008.34 1008.30 1008.30 1008.30 1008.23 1008.02 1007.60 1006.94 1006.01 1004.86 1003.54 1002.14 1000.77 999.52 998.47 997.68 997.16 996.89 996.87 997.05 997.38 997.84 998.40 999.07 999.83 1000.68 1001.61 1002.60 1003.61 1004.61 1005.55 1006.39 1007.10 1007.68 1008.14 1008.50 1008.79 1009.04 1009.31 1009.59
1009.34 1009.11 1008.85 1008.60 1008.37 1008.20 1008.06 1007.93 1007.76 1007.48 1007.06 1006.44 1005.61 1004.58 1003.41 1002.16 1000.92 999.76 998.76 997.96 997.39 997.04 996.91 996.96 997.17 997.51 997.96 998.52 999.19 999.95 1000.81 1001.74 1002.71 1003.69 1004.64 1005.52 1006.30 1006.97 1007.53 1007.98 1008.36 1008.68 1008.98 1009.28
1009.44 1009.18 1008.86 1008.50 1008.15 1007.81 1007.51 1007.23 1006.94 1006.59 1006.15 1005.58 1004.85 1003.98 1002.99 1001.93 1000.85 999.83 998.91 998.15 997.57 997.17 996.96 996.92 997.03 997.27 997.63 998.10 998.68 999.36 1000.14 1000.99 1001.90 1002.83 1003.76 1004.64 1005.46 1006.20 1006.84 1007.39 1007.86 1008.27 1008.62 1008.95
1009.28 1008.99 1008.61 1008.16 1007.69 1007.21 1006.75 1006.32 1005.90 1005.47 1005.01 1004.47 1003.85 1003.12 1002.30 1001.42 1000.52 999.64 998.82 998.11 997.54 997.12 996.86 996.76 996.81 996.99 997.29 997.71 998.23 998.85 999.56 1000.34 1001.17 1002.04 1002.91 1003.77 1004.60 1005.37 1006.07 1006.71 1007.27 1007.76 1008.20 1008.58
1008.86 1008.56 1008.16 1007.66 1007.10 1006.52 1005.93 1005.36 1004.83 1004.32 1003.82 1003.30 1002.74 1002.12 1001.45 1000.72 999.95 999.18 998.45 997.79 997.23 996.80 996.52 996.39 996.41 996.57 996.86 997.27 997.78 998.37 999.04 999.76 1000.53 1001.32 1002.13 1002.94 1003.74 1004.52 1005.25 1005.95 1006.59 1007.17 1007.69 1008.15
1008.28 1008.00 1007.62 1007.11 1006.52 1005.87 1005.20 1004.54 1003.91 1003.32 1002.77 1002.24 1001.71 1001.16 1000.56 999.92 999.24 998.54 997.86 997.21 996.65 996.21 995.91 995.77 995.80 995.98 996.31 996.75 997.29 997.90 998.57 999.26 999.98 1000.71 1001.44 1002.19 1002.94 1003.68 1004.43 1005.15 1005.85 1006.51 1007.11 1007.66
1007.68 1007.45 1007.11 1006.65 1006.07 1005.41 1004.69 1003.97 1003.27 1002.61 1002.01 1001.44 1000.90 1000.36 999.79 999.18 998.53 997.84 997.16 996.50 995.92 995.45 995.14 995.01 995.05 995.28 995.66 996.18 996.79 997.45 998.15 998.85 999.54 1000.22 1000.89 1001.56 1002.24 1002.94 1003.66 1004.39 1005.12 1005.84 1006.52 1007.15
1007.19 1007.02 1006.74 1006.34 1005.81 1005.16 1004.44 1003.69 1002.94 1002.22 1001.56 1000.94 1000.36 999.79 999.20 998.58 997.92 997.22 996.50 995.81 995.20 994.70 994.36 994.23 994.31 994.58 995.04 995.64 996.33 997.08 997.83 998.56 999.25 999.90 1000.52 1001.12 1001.74 1002.38 1003.05 1003.77 1004.51 1005.25 1005.99 1006.69
1006.89 1006.76 1006.54 1006.19 1005.70 1005.09 1004.37 1003.59 1002.80 1002.04 1001.32 1000.65 1000.02 999.41 998.80 998.16 997.47 996.75 996.01 995.29 994.64 994.11 993.76 993.62 993.72 994.04 994.56 995.24 996.02 996.85 997.67 998.44 999.15 999.79 1000.37 1000.92 1001.47 1002.05 1002.68 1003.36 1004.09 1004.85 1005.61 1006.36
1006.78 1006.66 1006.45 1006.12 1005.65 1005.03 1004.30 1003.50 1002.67 1001.86 1001.10 1000.39 999.73 999.11 998.50 997.86 997.19 996.47 995.74 995.02 994.36 993.82 993.46 993.33 993.43 993.78 994.34 995.07 995.92 996.81 997.69 998.51 999.25 999.89 1000.46 1000.98 1001.49 1002.02 1002.60 1003.24 1003.94 1004.69 1005.46 1006.23
1006.81 1006.63 1006.38 1006.00 1005.49 1004.83 1004.06 1003.21 1002.34 1001.48 1000.69 999.97 999.33 998.74 998.17 997.60 997.00 996.36 995.69 995.03 994.41 993.90 993.56 993.42 993.53 993.88 994.45 995.20 996.08 997.00 997.92 998.78 999.55 1000.21 1000.79 1001.30 1001.79 1002.28 1002.82 1003.43 1004.09 1004.82 1005.57 1006.34
1006.87 1006.58 1006.21 1005.73 1005.11 1004.35 1003.50 1002.57 1001.64 1000.76 999.95 999.26 998.67 998.16 997.71 997.28 996.84 996.35 995.83 995.30 994.78 994.35 994.04 993.93 994.03 994.36 994.91 995.64 996.50 997.42 998.35 999.23 1000.02 1000.71 1001.30 1001.82 1002.31 1002.79 1003.31 1003.88 1004.52 1005.21 1005.93 1006.67
1006.88 1006.42 1005.88 1005.24 1004.46 1003.56 1002.58 1001.56 1000.56 999.65 998.85 998.21 997.72 997.35 997.08 996.86 996.64 996.39 996.09 995.76 995.41 995.10 994.88 994.79 994.89 995.19 995.69 996.36 997.17 998.05 998.95 999.82 1000.61 1001.32 1001.93 1002.48 1002.98 1003.47 1003.98 1004.53 1005.13 1005.79 1006.47 1007.16
1006.78 1006.14 1005.41 1004.57 1003.61 1002.55 1001.42 1000.29 999.22 998.28 997.51 996.94 996.57 996.39 996.34 996.38 996.43 996.47 996.45 996.36 996.23 996.08 995.96 995.93 996.03 996.29 996.72 997.30 998.02 998.82 999.66 1000.49 1001.27 1001.98 1002.61 1003.18 1003.70 1004.20 1004.72 1005.26 1005.83 1006.44 1007.08 1007.72
1006.59 1005.78 1004.87 1003.84 1002.70 1001.48 1000.22 998.99 997.86 996.90 996.16 995.67 995.45 995.45 995.63 995.93 996.29 996.62 996.90 997.08 997.18 997.21 997.22 997.25 997.35 997.57 997.91 998.40 999.00 999.70 1000.45 1001.21 1001.95 1002.64 1003.27 1003.85 1004.39 1004.90 1005.41 1005.94 1006.49 1007.07 1007.66 1008.24
1006.36 1005.43 1004.39 1003.23 1001.96 1000.62 999.27 997.96 996.80 995.83 995.13 994.73 994.62 994.79 995.18 995.72 996.33 996.94 997.48 997.91 998.23 998.44 998.56 998.66 998.77 998.94 999.20 999.57 1000.05 1000.62 1001.26 1001.93 1002.61 1003.25 1003.87 1004.44 1004.97 1005.48 1005.99 1006.50 1007.02 1007.56 1008.10 1008.63
Thickness
5831 5825 5822 5830 5836 5838 5834 5829 5826 5832 5841 5833 5829 5830 5835 5838 5834 5830 5827 5825 5822 5820 5822 5820 5816 5812 5807 5801 5796 5792 5789 5785 5782 5779 5776 5772 5770 5770 5769 5768 5765 5763 5762 5761
5815 5816 5832 5838 5837 5831 5827 5822 5825 5831 5837 5831 5829 5831 5839 5839 5835 5834 5831 5828 5826 5824 5822 5819 5816 5813 5809 5803 5799 5795 5790 5788 5784 5782 5778 5776 5774 5772 5771 5770 5767 5765 5763 5761
5810 5824 5834 5827 5822 5819 5822 5822 5824 5822 5827 5831 5826 5823 5832 5839 5840 5837 5836 5835 5832 5829 5824 5820 5816 5814 5811 5806 5802 5799 5794 5791 5787 5785 5781 5777 5773 5772 5771 5769 5768 5766 5765 5763
5814 5826 5821 5817 5818 5820 5814 5830 5827 5822 5816 5817 5819 5808 5826 5836 5833 5833 5834 5835 5835 5833 5830 5826 5820 5816 5814 5811 5807 5802 5797 5792 5789 5786 5783 5778 5773 5771 5771 5770 5769 5767 5766 5764
5807 5816 5813 5810 5818 5823 5822 5830 5824 5821 5816 5813 5817 5808 5823 5834 5827 5832 5835 5836 5837 5836 5834 5829 5825 5821 5818 5815 5810 5805 5798 5793 5790 5788 5784 5780 5777 5775 5774 5772 5769 5767 5766 5764
5811 5819 5819 5819 5825 5825 5822 5817 5814 5815 5814 5795 5810 5806 5811 5830 5829 5834 5839 5838 5838 5837 5835 5832 5829 5824 5819 5816 5811 5806 5798 5794 5791 5787 5785 5781 5778 5775 5773 5770 5768 5767 5767 5765
5792 5803 5814 5821 5811 5813 5812 5799 5786 5782 5787 5795 5815 5806 5814 5834 5839 5838 5838 5839 5839 5838 5835 5831 5827 5823 5819 5816 5812 5807 5800 5793 5791 5788 5785 5782 5779 5776 5772 5770 5768 5767 5767 5765
5780 5784 5802 5810 5808 5804 5806 5804 5783 5771 5782 5801 5804 5801 5821 5838 5841 5842 5842 5841 5839 5837 5836 5832 5829 5825 5820 5816 5812 5808 5801 5795 5791 5787 5784 5782 5778 5777 5776 5772 5771 5768 5767 5766
5787 5786 5806 5810 5814 5810 5798 5800 5812 5797 5793 5790 5803 5811 5821 5833 5832 5834 5835 5835 5834 5834 5834 5832 5829 5825 5821 5817 5812 5808 5802 5796 5791 5788 5784 5780 5778 5775 5773 5771 5769 5768 5765 5764
5792 5779 5795 5802 5806 5805 5808 5806 5797 5788 5770 5771 5789 5798 5809 5816 5821 5826 5828 5828 5829 5830 5831 5830 5827 5824 5821 5818 5813 5808 5802 5795 5791 5786 5782 5779 5776 5774 5771 5769 5766 5765 5763 5761
5789 5776 5782 5787 5785 5789 5789 5789 5790 5790 5789 5774 5775 5796 5824 5820 5821 5821 5822 5823 5824 5825 5826 5825 5823 5822 5819 5815 5811 5805 5799 5793 5788 5784 5780 5777 5773 5771 5768 5765 5763 5761 5759 5757
5778 5777 5772 5781 5795 5800 5795 5792 5788 5775 5772 5779 5779 5794 5821 5820 5821 5818 5817 5817 5818 5819 5820 5819 5818 5816 5813 5809 5806 5801 5796 5791 5786 5782 5777 5774 5770 5767 5764 5762 5760 5758 5755 5754
5767 5763 5752 5760 5772 5780 5782 5788 5791 5789 5782 5777 5773 5788 5812 5812 5811 5811 5809 5809 5810 5810 5811 5811 5810 5808 5805 5802 5799 5796 5792 5788 5784 5779 5773 5769 5766 5763 5761 5760 5758 5755 5752 5750
5759 5757 5754 5755 5769 5778 5772 5778 5782 5780 5775 5774 5779 5788 5798 5800 5799 5801 5801 5801 5802 5801 5800 5801 5799 5799 5797 5794 5791 5789 5787 5784 5780 5775 5769 5765 5762 5760 5757 5755 5753 5751 5748 5746
5751 5745 5753 5763 5772 5773 5771 5772 5774 5772 5777 5775 5783 5786 5793 5796 5795 5794 5794 5793 5792 5792 5792 5792 5791 5790 5787 5785 5783 5782 5780 5778 5775 5770 5765 5761 5759 5756 5753 5750 5747 5745 5742 5741
5739 5736 5742 5745 5758 5762 5760 5767 5769 5771 5774 5776 5778 5779 5793 5793 5791 5786 5786 5785 5783 5783 5784 5784 5783 5782 5779 5777 5776 5774 5772 5771 5768 5764 5760 5757 5753 5750 5747 5744 5741 5739 5737 5735
5726 5724 5724 5732 5747 5746 5743 5761 5765 5768 5774 5773 5769 5777 5782 5778 5777 5777 5778 5778 5777 5777 5777 5777 5775 5774 5773 5772 5770 5767 5765 5764 5760 5757 5754 5751 5748 5744 5741 5739 5736 5733 5731 5729
5712 5713 5719 5725 5725 5713 5753 5770 5768 5764 5767 5772 5771 5773 5772 5771 5772 5773 5774 5772 5770 5770 5770 5770 5770 5768 5767 5766 5764 5762 5759 5756 5753 5750 5747 5744 5741 5738 5735 5733 5730 5728 5726 5724
5713 5706 5708 5714 5714 5727 5745 5755 5757 5752 5753 5765 5763 5763 5764 5764 5762 5763 5767 5768 5765 5765 5764 5763 5763 5763 5761 5759 5757 5754 5751 5748 5745 5743 5740 5738 5735 5732 5729 5727 5725 5722 5720 5718
5704 5701 5700 5703 5702 5710 5737 5750 5755 5747 5737 5756 5756 5753 5753 5751 5746 5753 5758 5758 5757 5756 5755 5755 5755 5754 5751 5750 5748 5745 5743 5740 5737 5735 5733 5730 5728 5725 5722 5720 5717 5715 5712 5711
5688 5688 5690 5695 5698 5717 5734 5740 5739 5721 5731 5745 5748 5746 5745 5744 5746 5749 5749 5747 5746 5745 5745 5745 5744 5742 5741 5740 5738 5734 5732 5730 5729 5727 5724 5722 5720 5717 5715 5712 5709 5706 5705 5703
5686 5687 5685 5689 5688 5702 5723 5726 5722 5724 5733 5736 5737 5738 5736 5736 5737 5738 5737 5735 5735 5734 5735 5735 5732 5730 5730 5729 5726 5723 5721 5720 5718 5716 5714 5713 5711 5709 5708 5703 5700 5697 5695 5693
5681 5687 5693 5692 5694 5703 5711 5713 5717 5722 5722 5724 5726 5728 5727 5725 5725 5726 5725 5725 5725 5724 5724 5724 5722 5719 5717 5716 5715 5711 5710 5710 5707 5705 5703 5702 5700 5698 5696 5693 5691 5689 5687 5687
5674 5679 5679 5681 5688 5694 5699 5704 5707 5710 5711 5715 5717 5718 5718 5716 5716 5716 5716 5715 5714 5714 5713 5712 5710 5707 5705 5704 5704 5702 5701 5699 5696 5694 5692 5692 5690 5688 5685 5684 5683 5681 5680 5679
5663 5666 5669 5670 5677 5681 5686 5689 5693 5696 5701 5704 5706 5707 5706 5707 5706 5705 5705 5704 5703 5702 5701 5700 5698 5695 5693 5693 5692 5692 5690 5688 5686 5684 5683 5682 5681 5679 5676 5675 5673 5672 5670 5669
5657 5657 5658 5662 5669 5669 5673 5679 5683 5684 5687 5692 5693 5693 5696 5696 5695 5695 5694 5694 5693 5692 5691 5689 5688 5686 5684 5683 5682 5681 5680 5678 5676 5674 5674 5673 5671 5669 5668 5666 5663 5659 5658 5656